Flag for Romania Weather past 2 weeks in Iasi, Romania

Now
73 °F

Passing clouds.


Feels Like: 77 °F
Forecast: 50 / 82 °F
Wind: 6 mph from Northwest

Location: Iasi Airport

Current Time: May 30, 2015 at 4:04:12 PM

Latest Report: May 30, 2015 at 3:30 PM


Visibility: N/A

Pressure: 29.95 "Hg

Humidity: 33%

Dew point: 43 °F

Location of IasiLocation

Historic Weather in Iasi — Graph

°F

Iasi temperature yesterday

Maximum temperature yesterday: 68 °F (at 4:00 PM)
Minimum temperature yesterday: 54 °F (at 5:30 AM)
Average temperature yesterday: 61 °F

Past Weeks' High & Low Weather Summary

 TemperatureHumidityPressure
High84 °F (May 24, 4:00 PM)100% (May 23, 5:00 AM)30.12 "Hg (May 23, 5:00 AM)
Low48 °F (May 16, 5:00 AM)28% (May 22, 5:00 PM)29.59 "Hg (May 26, 4:30 PM)
Average67 °F58%29.92 "Hg
* Reported May 15 3:00 PM — May 30 3:00 PM, Iasi, Weather by CustomWeather, © 2015

Note: Actual official high and low records may vary slightly from our data, if they occured in-between our weather recording intervals... More about our weather records

Advertising

Iasi weather history for previous 24 hours

 ConditionsComfort  
Time TempWeatherWind HumidityBarometerVisibility
3:00 PM
Sat, May 30
73 °FPassing clouds.9 mph33%29.95 "HgN/A
2:30 PM72 °FPassing clouds.8 mph33%29.95 "HgN/A
2:00 PM72 °FSunny.13 mph36%29.95 "Hg10 mi
1:30 PM70 °FSunny.9 mph38%29.98 "Hg10 mi
1:00 PM70 °FPassing clouds.9 mph38%29.98 "HgN/A
12:30 PM70 °FPassing clouds.9 mph38%29.98 "HgN/A
12:00 PM68 °FPassing clouds.8 mph43%29.98 "HgN/A
11:30 AM68 °FPassing clouds.7 mph43%29.98 "HgN/A
11:00 AM66 °FSunny.9 mph46%29.98 "Hg10 mi
10:30 AM66 °FSunny.8 mph52%29.98 "Hg10 mi
10:00 AM64 °FPassing clouds.7 mph56%29.98 "HgN/A
9:30 AM63 °FPassing clouds.7 mph56%29.98 "HgN/A
9:00 AM61 °FPassing clouds.8 mph59%29.98 "HgN/A
8:30 AM59 °FPassing clouds.5 mph63%29.98 "HgN/A
8:00 AM55 °FSunny.5 mph67%29.98 "Hg10 mi
7:30 AM52 °FSunny.5 mph77%29.98 "Hg10 mi
7:00 AM50 °FSunny.6 mph82%29.95 "Hg10 mi
6:00 AM48 °FClear.6 mph82%29.95 "Hg10 mi
4:00 AM48 °FClear.6 mph82%29.95 "Hg10 mi
3:00 AM48 °FClear.6 mph82%29.95 "Hg10 mi
1:00 AM52 °FClear.6 mph72%29.95 "Hg10 mi
12:00 AM55 °FClear.7 mph59%29.95 "Hg10 mi
11:00 PM
Fri, May 29
57 °FClear.6 mph55%29.92 "Hg10 mi
10:00 PM59 °FRefreshingly cool.7 mph51%29.92 "HgN/A
8:00 PM66 °FSunny.10 mph40%29.89 "Hg10 mi
7:30 PM66 °FSunny.15 mph40%29.86 "Hg10 mi
7:00 PM68 °FSunny.16 mph38%29.86 "Hg10 mi
6:30 PM66 °FSunny.14 mph40%29.86 "Hg10 mi
6:00 PM68 °FSunny.16 mph38%29.86 "Hg10 mi
5:30 PM68 °FPassing clouds.16 mph38%29.86 "HgN/A
5:00 PM68 °FSunny.18 mph38%29.86 "Hg10 mi
4:30 PM68 °FSunny.16 mph40%29.86 "Hg10 mi
4:00 PM68 °FSunny.14 mph40%29.86 "Hg10 mi
Weather by CustomWeather, © 2015

See weather overviewHow to use our weather pages